EW9733 Weather Reports


time (UTC)temp
F
wind
direction
speed
knots
gust
knots
rain 1hr
in
rain 24hr
in
rain mn
in
humidity
%
barometer
mb
20260831214543 71 173 0.9 3.5 0.00 0.09 0.01 70 1017.5
20260831213043 71 185 0.9 4.3 0.00 0.09 0.01 70 1017.4
20260831211537 72 159 1.7 6.1 0.00 0.09 0.01 68 1017.4
20260831210038 72 165 0.0 4.3 0.00 0.09 0.01 68 1017.5
20260831204549 73 157 0.0 4.3 0.00 0.09 0.01 65 1017.6
20260831203054 74 165 1.7 3.5 0.00 0.09 0.01 64 1017.5
20260831201535 73 182 0.9 4.3 0.00 0.09 0.01 65 1017.5
20260831200040 72 170 1.7 5.2 0.00 0.09 0.01 66 1017.5
20260831194541 72 171 0.9 5.2 0.00 0.09 0.01 66 1017.6
20260831193035 72 319 0.0 7.0 0.00 0.09 0.01 65 1017.9
20260831191535 72 138 0.9 5.2 0.00 0.09 0.01 63 1017.7
20260831190050 73 176 0.9 4.3 0.00 0.09 0.01 63 1018.0
20260831184533 74 173 2.6 6.1 0.00 0.09 0.01 63 1018.3
20260831183034 74 89 0.0 3.5 0.00 0.09 0.01 60 1018.2
20260831181539 74 167 1.7 4.3 0.00 0.09 0.01 61 1018.2
20260831180034 75 96 0.0 5.2 0.00 0.09 0.01 58 1018.2
20260831174529 74 167 0.9 4.3 0.00 0.09 0.01 60 1018.5
20260831173028 73 186 1.7 5.2 0.00 0.09 0.01 61 1018.5
20260831171530 74 83 0.0 4.3 0.00 0.09 0.01 62 1018.6
20260831170035 74 86 0.9 5.2 0.00 0.09 0.01 60 1018.8
20260831164528 75 240 0.0 1.7 0.00 0.09 0.01 60 1018.8
20260831163026 73 302 0.9 4.3 0.00 0.09 0.01 60 1019.1
20260831161523 74 34 0.9 8.7 0.00 0.09 0.01 62 1019.2
20260831160038 73 106 0.0 5.2 0.00 0.09 0.01 60 1019.3
20260831154521 73 52 0.0 6.1 0.00 0.09 0.01 59 1019.4
20260831153043 73 34 0.9 7.0 0.00 0.09 0.01 59 1019.5
20260831151519 72 32 0.9 5.2 0.00 0.09 0.01 61 1019.5
20260831150016 72 71 0.9 4.3 0.00 0.09 0.01 60 1019.4
20260831144511 72 52 0.9 4.3 0.00 0.09 0.01 62 1019.4
20260831143007 71 45 0.0 4.3 0.00 0.09 0.01 66 1019.4
20260831141509 71 40 0.0 3.5 0.00 0.09 0.01 68 1019.3
20260831140059 70 84 0.9 2.6 0.00 0.09 0.01 70 1019.3
20260831134604 69 93 0.0 5.2 0.00 0.09 0.01 71 1019.4
20260831133051 68 124 0.0 2.6 0.00 0.09 0.01 78 1019.3
20260831131551 66 38 0.9 3.5 0.00 0.09 0.01 85 1019.2
20260831130050 65 53 0.0 2.6 0.00 0.09 0.01 92 1019.2
20260831124538 64 48 0.9 1.7 0.00 0.09 0.01 93 1019.1
20260831123043 63 51 0.0 7.0 0.00 0.09 0.01 93 1019.1
20260831121537 62 83 0.0 3.5 0.00 0.09 0.01 94 1018.8
20260831120055 61 190 0.0 0.0 0.00 0.09 0.01 93 1018.9
20260831114532 61 193 0.0 0.9 0.00 0.09 0.01 93 1018.8
20260831113026 60 193 0.0 0.9 0.00 0.09 0.01 93 1018.6
20260831111525 60 193 0.0 0.0 0.01 0.09 0.01 92 1018.7
20260831110022 60 193 0.0 0.0 0.01 0.09 0.01 92 1018.4
20260831104531 60 193 0.0 0.0 0.01 0.09 0.01 92 1018.3
20260831103016 60 193 0.0 0.0 0.01 0.09 0.01 91 1018.2
20260831101536 60 193 0.0 0.0 0.00 0.08 0.00 91 1017.8
20260831100037 61 193 0.0 0.0 0.00 0.08 0.00 91 1017.7
20260831094530 61 193 0.0 0.0 0.00 0.08 0.00 91 1017.6
20260831093029 61 193 0.0 0.0 0.00 0.08 0.00 91 1017.5
20260831091528 62 193 0.0 0.0 0.00 0.08 0.00 91 1017.5
20260831090027 62 193 0.0 0.0 0.00 0.08 0.00 90 1017.4
20260831084527 62 193 0.0 0.0 0.00 0.08 0.00 90 1017.3
20260831083025 63 193 0.0 0.0 0.00 0.08 0.00 90 1017.1
20260831081533 63 193 0.0 0.0 0.00 0.08 0.00 90 1017.0
20260831080016 63 193 0.0 0.0 0.00 0.08 0.00 90 1016.8
20260831074517 64 193 0.0 0.0 0.00 0.08 0.00 90 1016.6
20260831073011 64 193 0.0 0.9 0.00 0.08 0.00 90 1016.3
20260831071510 65 194 0.0 0.0 0.00 0.08 0.00 90 1016.3
20260831070012 65 194 0.0 0.0 0.00 0.08 0.00 90 1016.2
20260831064505 66 194 0.0 0.0 0.00 0.08 0.00 90 1016.2
20260831063004 66 194 0.0 0.0 0.00 0.08 0.00 90 1016.2
20260831061502 67 194 0.0 0.0 0.00 0.08 0.00 90 1016.2
20260831060109 67 194 0.0 0.0 0.00 0.08 0.00 90 1016.1
20260831054559 67 194 0.0 0.0 0.00 0.08 0.00 89 1016.0
20260831053054 68 194 0.0 0.0 0.00 0.08 0.00 89 1015.7
20260831051616 68 194 0.0 0.0 0.00 0.08 0.00 89 1015.6
20260831050051 69 194 0.0 0.0 0.00 0.08 0.00 89 1015.5
20260831044549 69 194 0.0 0.0 0.00 0.08 0.00 89 1015.5
20260831043048 70 194 0.0 0.0 0.02 0.08 0.00 88 1015.6
20260831041549 70 194 0.0 0.0 0.04 0.08 0.00 88 1015.6
20260831040049 70 194 0.0 0.0 0.08 0.08 0.00 87 1015.5
20260831034542 71 194 0.0 0.9 0.08 0.08 0.08 87 1015.6
20260831033042 71 192 0.0 0.9 0.06 0.06 0.06 85 1015.8
20260831031546 72 190 0.0 0.9 0.04 0.04 0.04 83 1015.7
20260831030041 72 193 0.0 1.7 0.00 0.00 0.00 80 1015.8
20260831024540 72 279 0.0 0.9 0.00 0.00 0.00 78 1015.6
20260831023042 73 280 0.0 0.9 0.00 0.00 0.00 76 1015.6
20260831021552 73 280 0.0 0.9 0.00 0.00 0.00 75 1015.5
20260831020038 73 156 0.0 1.7 0.00 0.00 0.00 74 1015.5
20260831014538 73 184 0.0 1.7 0.00 0.00 0.00 72 1015.4
20260831013039 73 184 0.0 1.7 0.00 0.00 0.00 71 1015.3
20260831011540 73 53 0.0 1.7 0.00 0.00 0.00 69 1015.3
20260831010104 74 259 0.0 2.6 0.00 0.00 0.00 68 1015.3
20260831004547 74 236 0.0 2.6 0.00 0.00 0.00 67 1015.1
20260831003036 74 244 0.0 2.6 0.00 0.00 0.00 66 1015.1
20260831001551 74 155 0.0 1.7 0.00 0.00 0.00 64 1014.9
20260831000035 74 176 0.0 1.7 0.00 0.00 0.00 63 1014.7
20260830234534 75 215 0.0 2.6 0.00 0.00 0.00 63 1014.7
20260830233033 75 141 0.0 2.6 0.00 0.00 0.00 61 1014.7
20260830231535 76 178 0.0 5.2 0.00 0.00 0.00 60 1014.8
20260830230036 76 155 0.0 2.6 0.00 0.00 0.00 59 1014.7
20260830224539 77 128 0.0 2.6 0.00 0.00 0.00 59 1015.0
20260830223029 77 152 0.0 2.6 0.00 0.00 0.00 58 1015.0
20260830221529 78 258 0.0 4.3 0.00 0.00 0.00 56 1015.0
20260830220028 78 142 0.0 2.6 0.00 0.00 0.00 53 1015.1